Find Ronghe Shiyan Weixing 1

NORAD ID: 49112 Int'l Des: 2021-076 Owner: CAST Country: CN operational
LEOCIRCULARPOLARONEWEB_TYPE

現在のビュー

3D地球を読み込み中...

Ronghe Shiyan Weixing 1について

説明を読み込み中...

次回通過

Passes for default location (London). Set your location on the main map for personalized predictions.

高度履歴

Loading altitude history...

軌道要素

1 49112U 21076A 26151.13751817 .00000004 00000-0 -21302-4 0 9998
2 49112 86.4095 163.9072 0017385 109.7497 250.5525 13.42861690233596
Epoch: May 31, 2026 • Age: 11 hours

現在のステータス

高度 1123.9 km
速度 7.28 km/s
衛星直下点 -37.93°S, 64.26°E
打ち上げ日 Aug 24, 2021
運用期間 4.7 years
タイプ other

技術仕様

分類 Payload
質量 300.00 kg
乾燥質量 300.00 kg
総質量 300.00 kg
長さ 2.50 m
直径 0.80 m
スパン 2.50 m
形状 Box + 2 Pan
製造者 CAST
フェーズステータス In Orbit
所有者/国 CAST/CN

Most Searched